Regional Weather Roundup
Issued by NWS Cleveland, OH

Home | Current Version | Previous Version | Graphics & Text | Print | Product List | Glossary On
Versions: 1 2 3 4 5 6 7 8 9 10 11 12 13 14 15 16 17 18 19 20 21 22 23 24 25 26 27 28 29 30 31 32 33 34 35 36 37 38 39 40 41 42 43 44 45 46 47 48 49 50
000
ASUS41 KCLE 040502
RWRCLE
OHIO REGIONAL WEATHER ROUNDUP
NATIONAL WEATHER SERVICE CLEVELAND, OH
100 AM EDT TUE AUG 04 2015

NOTE: "FAIR" INDICATES FEW OR NO CLOUDS BELOW 12,000 FEET WITH NO
SIGNIFICANT WEATHER AND/OR OBSTRUCTIONS TO VISIBILITY.

OHZ001>008-015>018-024>027-034-035-043-044-040600-
   NORTHWEST OHIO

CITY           SKY/WX    TMP DP  RH WIND       PRES   REMARKS
DEFIANCE       CLEAR     61  54  77 CALM      29.91R
FINDLAY        CLEAR     60  55  83 SW3       29.90R
TOLEDO EXPRESS CLEAR     63  53  70 W7        29.89S
TOLEDO EXEC    CLEAR     64  52  64 W7        29.89S
LIMA           CLEAR     61  55  81 S3        29.93R
$$

OHZ009>014-019>023-028>033-038-089-040600-
   NORTHEAST OHIO

CITY           SKY/WX    TMP DP  RH WIND       PRES   REMARKS
CLE-HOPKINS    PTCLDY    67  59  75 W7        29.89R
CLE-LAKEFRONT  PTCLDY    74  60  61 W16       29.85R
CUY CO. ARPT   NOT AVBL
LORAIN-ELYRIA  CLEAR     64  55  72 W6        29.90R
ASHTABULA      CLEAR     62  61  96 CALM      29.86R
AKRON-CANTON   PTCLDY    69  60  73 W10       29.89R
WOOSTER        CLEAR     65  53  65 NW7       29.91R
MANSFIELD      CLEAR     64  53  67 W5        29.92R
YOUNGSTOWN     PTCLDY    63  60  90 CALM      29.86F
$$

OHZ042-051>053-060>062-070>072-077>081-040600-
  SOUTHWEST OHIO

CITY           SKY/WX    TMP DP  RH WIND       PRES   REMARKS
CINC-COVINGTON MOCLDY    72  65  78 S3        29.93R
CINC-LUNKEN    MOCLDY    67  67 100 CALM      29.93R
HAMILTON       CLOUDY    69  68  96 CALM      29.94R
DAYTON         MOCLDY    69  63  81 N5        29.96R
WRIGHT-PAT AFB MOCLDY    69  66  89 E2        29.94R
DAYTON GENERAL MOCLDY    69  65  86 CALM      29.94R
WILMINGTON     MOCLDY    67  63  87 CALM      29.94R
$$

OHZ036-037-039>041-045>050-054>059-063>069-073>076-082>088-040600-
  CENTRAL AND SOUTHEAST OHIO

CITY           SKY/WX    TMP DP  RH WIND       PRES   REMARKS
COLUMBUS       CLEAR     68  60  75 NW6       29.92R
OSU AIRPORT    CLEAR     66  62  87 W3        29.94R
BOLTON FIELD   NOT AVBL
RICKENBACK AFB MOCLDY    65  62  89 CALM      29.92S
NEWARK         CLEAR     67  63  87 CALM      29.92R
MARION         PTCLDY    64  53  67 NW3       29.93R
LANCASTER      PTCLDY    68  62  81 NW3       29.93R
ZANESVILLE     CLEAR     71  63  75 NW8       29.90S
NEW PHILLY     PTCLDY    70  62  76 NW7       29.90R
$$


USA.gov is the U.S. government's official web portal to all federal, state and local government web resources and services.